GW4091 Weather Reports


time (UTC)temp
C
wind
direction
speed
KPH
gust
KPH
rain 1hr
cm
rain 24hr
cm
rain mn
cm
humidity
%
barometer
mb
20260505200029 24 159 6.4 16.1 0.00 0.03 0.03 50 1017.0
20260505194524 25 160 4.8 12.9 0.00 0.03 0.03 49 1017.2
20260505193030 24 157 4.8 16.1 0.00 0.03 0.03 50 1017.6
20260505191535 24 127 3.2 14.5 0.00 0.03 0.03 51 1017.9
20260505190031 24 178 8.0 17.7 0.00 0.03 0.03 49 1018.0
20260505184542 24 177 6.4 14.5 0.00 0.03 0.03 53 1017.9
20260505183030 24 180 6.4 16.1 0.00 0.03 0.03 53 1017.8
20260505181530 25 175 6.4 12.9 0.00 0.03 0.03 51 1017.6
20260505180015 24 167 6.4 19.3 0.00 0.03 0.03 52 1017.7
20260505174519 24 175 4.8 16.1 0.00 0.03 0.03 51 1017.8
20260505173029 25 168 8.0 20.9 0.00 0.03 0.03 51 1017.6
20260505171528 24 167 4.8 12.9 0.00 0.03 0.03 50 1018.0
20260505170035 23 98 1.6 17.7 0.00 0.03 0.03 51 1018.0
20260505164517 24 148 4.8 14.5 0.00 0.03 0.03 50 1018.3
20260505163033 23 157 8.0 16.1 0.00 0.03 0.03 50 1018.4
20260505161530 23 154 6.4 14.5 0.00 0.03 0.03 51 1018.6
20260505153021 23 184 8.0 12.9 0.00 0.03 0.03 54 1018.7
20260505151532 23 182 4.8 12.9 0.00 0.03 0.03 57 1018.7
20260505124534 18 161 1.6 3.2 0.00 0.03 0.03 77 1018.3
20260505123029 17 161 0.0 0.0 0.00 0.03 0.03 79 1018.2
20260505121531 17 161 0.0 0.0 0.00 0.03 0.03 84 1018.3
20260505120029 15 161 0.0 0.0 0.00 0.03 0.03 90 1018.2
20260505114528 13 161 0.0 0.0 0.00 0.03 0.03 92 1018.0
20260505113040 13 161 0.0 0.0 0.00 0.03 0.03 91 1017.9
20260505111542 12 161 0.0 0.0 0.00 0.03 0.03 91 1017.7
20260505101523 12 161 0.0 0.0 0.00 0.03 0.03 91 1017.1
20260505100018 12 161 0.0 0.0 0.03 0.03 0.03 91 1017.0
20260505094527 13 161 0.0 0.0 0.03 0.03 0.03 90 1017.0
20260505093033 13 161 0.0 0.0 0.03 0.03 0.03 90 1016.9
20260505091511 13 161 0.0 0.0 0.03 0.03 0.03 90 1016.8
20260505090021 13 161 0.0 0.0 0.00 0.00 0.00 90 1016.7
20260505084532 13 161 0.0 0.0 0.00 0.00 0.00 89 1016.4
20260505083005 13 161 0.0 0.0 0.00 0.00 0.00 89 1016.4
20260505081508 13 161 0.0 0.0 0.00 0.00 0.00 89 1016.3
20260505080030 13 161 0.0 0.0 0.00 0.00 0.00 88 1016.2
20260505074519 13 161 0.0 0.0 0.00 0.00 0.00 88 1016.2
20260505073032 13 161 0.0 0.0 0.00 0.00 0.00 88 1016.2
20260505071507 13 161 0.0 0.0 0.00 0.00 0.00 87 1016.3
20260505070020 13 161 0.0 0.0 0.00 0.00 0.00 86 1016.3
20260505064528 13 161 0.0 0.0 0.00 0.00 0.00 86 1016.4
20260505063022 14 161 0.0 0.0 0.00 0.00 0.00 85 1016.5
20260505061552 14 161 0.0 0.0 0.00 0.00 0.00 84 1016.7
20260505060008 14 161 0.0 0.0 0.00 0.00 0.00 83 1017.0
20260505054516 14 161 0.0 3.2 0.00 0.00 0.00 83 1017.1
20260505053023 14 161 0.0 0.0 0.00 0.00 0.00 82 1017.3
20260505051530 15 161 0.0 0.0 0.00 0.00 0.00 81 1017.5
20260505041522 15 161 0.0 0.0 0.00 0.00 0.00 75 1017.5
20260505040038 16 161 0.0 0.0 0.00 0.00 0.00 74 1017.6
20260505034537 16 161 0.0 0.0 0.00 0.00 0.00 72 1017.6
20260505033015 16 161 0.0 0.0 0.00 0.00 0.00 71 1017.6
20260505030026 17 161 0.0 3.2 0.00 0.00 0.00 68 1017.6
20260505023013 17 161 0.0 3.2 0.00 0.00 0.00 66 1017.5
20260505021534 17 161 0.0 3.2 0.00 0.00 0.00 64 1017.6
20260505020035 18 161 0.0 3.2 0.00 0.00 0.00 62 1017.5
20260505014527 18 161 0.0 3.2 0.00 0.00 0.00 61 1017.4
20260505013009 18 161 0.0 3.2 0.00 0.00 0.00 60 1017.4
20260505011514 18 161 0.0 3.2 0.00 0.00 0.00 57 1017.3
20260505010021 19 161 0.0 3.2 0.00 0.00 0.00 55 1017.3
20260505004528 19 161 0.0 3.2 0.00 0.00 0.00 54 1017.2
20260505003030 20 161 0.0 3.2 0.00 0.00 0.00 52 1017.2
20260505001512 20 159 1.6 3.2 0.00 0.00 0.00 51 1017.1
20260505000043 20 176 0.0 4.8 0.00 0.00 0.00 49 1017.2
20260504234525 20 182 1.6 9.7 0.00 0.00 0.00 48 1017.0
20260504233028 21 182 4.8 8.0 0.00 0.00 0.00 46 1016.9
20260504231528 21 166 4.8 11.3 0.00 0.00 0.00 44 1016.8
20260504230016 21 176 3.2 11.3 0.00 0.00 0.00 43 1016.8
20260504224527 22 198 8.0 16.1 0.00 0.00 0.00 44 1016.9
20260504223026 22 134 9.7 16.1 0.00 0.00 0.00 43 1016.9
20260504221528 22 181 6.4 16.1 0.00 0.00 0.00 43 1017.0
20260504220043 22 178 4.8 17.7 0.00 0.00 0.00 45 1016.9
20260504214520 22 173 3.2 14.5 0.00 0.00 0.00 45 1016.8
20260504213002 22 202 6.4 17.7 0.00 0.00 0.00 44 1016.9
20260504211505 23 145 6.4 17.7 0.00 0.00 0.00 42 1016.8
20260504210012 23 167 8.0 19.3 0.00 0.00 0.00 43 1016.8
20260504204509 23 272 6.4 17.7 0.00 0.00 0.00 43 1016.8
20260504203012 23 167 9.7 16.1 0.00 0.00 0.00 41 1016.8
20260504201504 23 171 8.0 19.3 0.00 0.00 0.00 41 1016.9